Wind_Speed
32 32 33 33 34 34 35 35 36 36 37 38 38 39 40 40 41 41 41 41 41 41 42 42 42 43 43 43 43 43 44 44 44 44 44 44 44 44 44 45 45 45 45
33 33 34 35 36 37 37 38 38 39 40 41 42 43 44 45 45 45 45 46 46 46 46 47 47 47 47 47 47 47 47 47 47 47 47 47 47 47 47 48 48 48 48
33 34 34 35 37 37 38 39 40 41 42 43 44 46 47 47 48 48 49 49 49 50 50 50 51 51 51 52 51 51 51 51 51 50 50 50 50 50 50 50 50 50 50
33 34 34 36 37 37 38 39 40 41 43 44 45 47 48 48 49 50 51 51 52 52 53 54 54 55 55 55 55 55 55 54 54 53 53 52 52 51 51 51 51 51 51
33 33 34 35 36 37 37 39 40 41 42 44 45 47 48 49 50 51 52 52 53 54 55 56 57 57 58 58 58 58 57 57 56 56 55 55 54 54 53 53 53 53 53
33 33 34 35 36 36 37 39 40 41 43 45 46 47 48 49 50 51 52 53 54 55 57 58 59 59 60 60 61 61 61 60 60 59 58 57 57 56 55 55 55 55 54
33 33 34 35 36 37 38 40 41 43 44 46 47 48 48 49 50 51 53 55 56 57 59 60 61 61 62 63 63 64 64 63 63 62 61 60 60 59 58 58 57 57 56
32 33 34 35 37 38 40 41 43 44 45 47 49 51 51 51 53 54 55 57 58 60 61 62 63 64 65 65 66 66 67 66 66 66 65 64 63 62 61 60 60 59 58
33 34 35 37 38 40 41 43 45 47 48 50 52 54 56 56 57 56 57 59 62 64 65 66 67 68 69 69 69 69 70 70 69 69 69 68 67 66 65 64 62 61 61
34 36 37 39 40 42 44 46 48 50 52 54 56 58 60 62 63 63 62 63 65 67 69 70 72 73 73 74 74 74 74 74 74 73 73 72 71 70 68 67 66 64 63
36 38 40 42 44 46 48 50 52 55 57 59 61 63 65 67 69 71 71 71 71 72 73 74 76 77 78 79 79 78 78 79 78 78 77 76 74 73 72 70 69 67 66
40 42 44 46 48 51 53 55 57 60 62 64 66 69 71 73 74 77 78 79 79 80 81 81 81 82 83 84 83 83 83 83 83 82 81 80 78 77 75 74 72 70 69
44 46 49 51 53 56 58 60 62 64 67 69 71 73 76 78 80 82 84 85 86 86 87 88 88 87 87 87 87 87 88 87 87 86 85 83 82 80 79 77 75 73 72
48 50 53 55 58 60 62 65 67 69 71 73 75 78 80 82 85 87 89 90 91 91 91 91 91 91 90 90 89 90 90 89 89 88 87 86 85 83 82 80 78 76 74
52 55 57 59 62 64 67 69 71 73 75 77 80 82 84 86 88 90 92 93 94 94 92 90 91 91 91 91 90 90 90 90 89 89 88 87 86 84 83 82 80 78 76
57 59 61 64 66 68 71 73 75 77 79 81 84 86 88 89 91 91 91 91 92 92 91 87 87 88 89 89 87 86 86 86 87 87 86 86 85 84 83 82 81 79 78
61 64 66 68 70 72 75 77 79 81 83 85 87 88 89 89 90 88 87 86 85 85 86 82 80 80 81 81 81 80 80 80 81 81 81 82 82 82 81 81 80 79 78
66 68 70 72 74 76 78 81 83 85 86 88 88 88 88 86 84 82 80 79 78 78 78 74 70 71 73 72 72 72 72 72 73 74 74 75 76 77 77 78 78 78 77
70 72 74 76 78 80 82 84 86 87 88 88 87 85 82 79 77 75 74 72 71 70 70 68 64 64 64 65 65 64 65 66 67 68 69 69 69 70 71 72 74 74 75
73 75 77 79 81 83 85 86 88 88 87 85 81 78 74 72 70 68 67 66 65 65 64 63 61 58 58 59 59 58 59 60 61 62 63 64 65 66 66 67 68 68 69
76 78 80 81 83 85 86 87 87 86 83 78 73 70 67 65 63 62 62 60 60 60 59 59 57 55 53 53 54 54 55 55 56 57 58 59 60 61 62 62 63 65 66
78 80 82 83 84 86 86 85 84 81 76 71 66 63 61 59 58 57 57 56 55 54 54 53 52 51 49 50 51 51 51 52 52 52 53 54 57 57 59 60 61 62 64
80 81 83 84 85 84 83 81 78 74 68 63 60 58 56 55 54 52 51 50 50 50 51 50 49 46 46 46 47 48 48 49 49 50 50 49 51 53 55 57 60 62 63
81 83 83 84 83 80 78 74 70 65 61 58 56 54 52 51 50 49 48 47 47 47 47 47 46 45 44 43 44 45 45 46 46 47 47 47 48 50 51 53 54 56 59
82 83 83 82 79 75 72 67 63 59 56 53 52 50 49 48 47 47 46 45 45 44 44 44 44 43 42 42 43 43 43 44 43 44 45 45 46 47 48 49 51 54 56
83 82 80 77 74 70 65 61 58 56 53 50 48 47 47 46 46 45 45 44 43 42 42 42 42 41 40 40 41 42 42 42 42 42 42 44 45 46 46 47 48 50 52
Wind_Direction
271 270 270 269 269 268 268 268 268 268 269 269 269 270 271 271 271 272 272 273 273 274 274 274 275 275 276 276 277 277 278 278 278 278 278 277 277 277 277 276 275 275 274
272 272 272 272 271 271 271 271 271 271 271 271 271 271 271 271 272 273 273 273 274 274 274 274 275 275 275 275 276 276 277 277 277 277 277 277 277 277 277 276 276 275 273
274 274 274 273 273 273 273 273 273 272 272 272 272 272 272 272 273 273 273 274 274 274 274 274 274 274 274 274 274 275 275 276 276 276 276 276 276 276 276 276 276 275 274
277 276 276 276 275 275 275 274 273 273 273 273 272 272 273 273 273 273 273 273 273 273 273 273 273 273 273 274 274 274 274 274 274 275 275 275 275 275 276 275 276 275 275
279 279 278 278 278 278 277 277 276 275 275 274 274 273 274 274 274 274 274 274 273 273 273 273 273 273 273 273 273 273 273 273 273 274 274 274 274 274 274 274 275 275 275
281 280 280 279 279 279 279 278 277 277 276 276 275 275 275 275 275 275 275 274 274 274 273 273 273 273 273 272 272 272 272 272 272 272 273 273 273 273 273 273 274 274 274
283 283 282 282 282 282 282 281 280 280 279 279 278 278 277 277 277 276 276 275 275 274 274 274 273 273 273 272 272 272 271 271 271 271 271 271 271 271 272 272 272 273 273
284 284 284 284 285 285 284 284 283 282 282 281 281 280 279 278 278 277 277 277 276 276 275 274 274 273 273 272 272 271 271 271 270 270 270 270 270 270 270 271 271 271 272
286 287 287 288 287 287 287 286 286 285 285 284 284 284 283 282 279 278 277 277 277 276 276 275 274 273 272 272 271 271 271 270 269 269 269 269 269 269 269 269 269 269 270
289 289 290 290 290 290 289 289 289 289 288 288 287 287 286 286 285 283 280 278 276 276 276 276 275 274 273 272 271 270 269 269 268 268 267 267 267 267 267 267 267 268 268
291 292 292 292 292 292 292 291 291 291 290 289 289 288 287 287 286 285 284 282 280 278 276 275 274 274 273 272 271 269 268 267 267 266 266 265 265 265 265 265 265 266 266
293 294 294 294 294 294 293 293 292 292 291 290 290 289 288 287 286 285 285 283 282 280 279 277 275 273 272 271 270 269 267 266 265 265 264 264 263 263 263 263 263 264 264
295 295 296 296 295 295 294 293 293 293 292 291 290 289 288 288 287 286 285 284 282 281 280 278 277 274 272 271 269 267 266 265 264 263 263 262 262 261 261 261 261 261 262
295 296 296 296 296 295 294 294 293 293 292 291 291 290 289 289 288 286 285 284 283 281 280 279 277 275 273 271 269 267 266 264 263 262 261 261 260 260 259 259 259 259 259
296 297 297 297 297 296 295 295 295 294 293 292 292 291 290 290 288 287 286 284 283 282 280 278 277 276 274 271 270 268 266 264 263 261 260 259 258 258 258 257 257 257 257
298 298 299 298 298 298 297 297 296 295 295 294 294 293 292 291 290 288 287 285 284 283 281 279 277 276 274 272 270 268 267 265 263 262 260 258 257 257 256 256 256 256 256
300 300 300 300 300 299 299 299 298 297 297 296 296 295 294 292 291 289 288 286 285 283 282 281 278 276 275 273 270 268 267 266 264 262 260 258 257 256 255 255 255 255 255
302 302 302 302 302 301 301 300 300 299 299 299 298 296 295 293 292 290 288 287 286 285 284 282 280 277 276 274 272 269 267 266 264 262 260 259 257 256 254 254 254 253 254
303 304 304 303 303 303 302 302 302 301 301 300 299 297 296 294 292 291 289 288 287 285 284 284 282 278 276 275 273 271 268 266 264 262 260 258 256 255 253 252 252 252 252
305 305 305 305 304 304 304 304 303 303 302 301 299 297 296 294 293 291 290 289 288 286 285 285 283 280 277 275 273 271 268 266 264 262 260 258 256 254 253 251 251 251 251
306 306 306 306 306 306 306 305 305 303 302 301 299 297 296 294 293 292 291 290 288 287 286 286 284 281 277 275 273 271 269 266 264 263 261 258 255 254 252 251 250 250 250
307 307 307 307 307 307 307 306 305 304 302 301 299 297 295 294 293 292 291 290 290 289 287 286 284 281 278 274 272 270 269 267 265 263 262 259 256 254 252 251 250 250 250
307 308 308 308 309 308 307 306 305 303 302 300 298 296 295 294 293 292 291 290 290 289 289 287 285 282 278 274 272 270 269 267 264 262 261 260 258 256 254 253 251 250 250
308 309 309 310 309 309 307 306 304 303 301 300 298 297 296 295 294 292 291 290 289 289 288 287 285 282 279 275 273 271 269 267 265 263 262 261 259 257 255 253 252 251 251
309 310 311 310 310 309 307 305 304 303 302 300 299 298 297 295 294 292 292 291 289 288 286 285 284 283 280 276 274 271 269 268 267 264 262 261 259 257 256 255 253 252 251
311 311 311 311 310 309 307 305 304 303 302 301 300 298 297 295 294 293 292 291 290 288 286 285 284 282 280 277 275 273 271 269 267 265 262 261 259 258 257 256 254 253 252
Height
5829 5828 5828 5827 5826 5826 5825 5825 5825 5824 5823 5823 5822 5821 5821 5820 5819 5819 5819 5818 5818 5817 5816 5815 5814 5813 5812 5811 5810 5809 5808 5807 5806 5805 5805 5804 5803 5802 5801 5801 5800 5799 5799
5822 5821 5821 5820 5819 5818 5818 5817 5817 5816 5815 5814 5813 5812 5811 5810 5810 5809 5809 5808 5808 5807 5806 5804 5803 5802 5801 5800 5799 5798 5797 5796 5795 5795 5794 5793 5792 5791 5791 5790 5789 5789 5788
5815 5814 5813 5812 5811 5810 5809 5809 5808 5807 5806 5804 5803 5802 5801 5800 5799 5798 5798 5797 5796 5795 5794 5793 5791 5790 5789 5788 5787 5786 5785 5785 5784 5783 5782 5781 5780 5780 5779 5778 5777 5777 5776
5808 5807 5805 5804 5803 5802 5801 5799 5798 5797 5795 5794 5793 5791 5790 5789 5788 5787 5786 5785 5784 5783 5781 5780 5778 5777 5776 5775 5774 5773 5772 5772 5771 5770 5769 5768 5768 5767 5766 5766 5765 5764 5764
5800 5799 5798 5796 5794 5793 5791 5790 5788 5787 5785 5783 5782 5780 5779 5777 5776 5775 5774 5772 5770 5769 5767 5766 5764 5763 5762 5761 5760 5759 5758 5757 5757 5756 5756 5755 5754 5754 5753 5753 5752 5752 5751
5793 5791 5789 5787 5786 5784 5782 5780 5778 5776 5775 5772 5770 5769 5767 5766 5764 5763 5761 5758 5757 5755 5753 5751 5750 5748 5747 5746 5745 5743 5743 5742 5742 5741 5741 5740 5740 5740 5740 5739 5739 5738 5738
5785 5783 5781 5779 5777 5775 5773 5771 5768 5766 5764 5761 5759 5757 5756 5754 5752 5750 5747 5745 5743 5741 5738 5736 5734 5733 5732 5730 5729 5728 5727 5726 5725 5725 5725 5725 5725 5725 5725 5725 5724 5724 5724
5777 5775 5773 5771 5768 5766 5763 5760 5757 5755 5753 5749 5747 5744 5743 5743 5740 5737 5734 5731 5728 5725 5723 5721 5718 5716 5715 5713 5712 5711 5710 5709 5708 5708 5708 5708 5708 5709 5709 5709 5709 5709 5709
5769 5766 5764 5761 5759 5756 5753 5750 5746 5744 5741 5738 5734 5730 5727 5726 5725 5724 5721 5717 5712 5709 5706 5704 5701 5699 5696 5695 5694 5693 5691 5690 5690 5690 5690 5690 5691 5691 5692 5692 5693 5693 5694
5760 5758 5755 5752 5749 5746 5743 5739 5735 5731 5728 5724 5720 5716 5711 5707 5704 5704 5704 5701 5697 5693 5689 5685 5682 5679 5677 5675 5674 5673 5671 5670 5670 5670 5670 5671 5671 5672 5673 5674 5675 5676 5677
5752 5749 5745 5742 5739 5735 5731 5727 5723 5718 5714 5709 5705 5700 5696 5690 5685 5681 5681 5680 5677 5674 5671 5667 5662 5659 5656 5653 5652 5651 5649 5648 5648 5648 5649 5650 5651 5652 5653 5655 5656 5658 5659
5742 5739 5735 5731 5727 5723 5718 5714 5709 5704 5699 5694 5688 5683 5677 5672 5667 5661 5658 5656 5653 5650 5646 5643 5641 5637 5633 5629 5628 5627 5625 5624 5624 5625 5626 5628 5629 5631 5632 5634 5636 5638 5640
5732 5728 5724 5719 5714 5709 5704 5699 5694 5688 5682 5676 5670 5664 5658 5652 5646 5639 5634 5631 5627 5626 5621 5618 5614 5611 5607 5603 5602 5600 5598 5598 5598 5600 5601 5603 5606 5608 5610 5613 5615 5618 5620
5721 5717 5712 5706 5701 5695 5689 5683 5678 5671 5664 5658 5651 5644 5637 5630 5622 5615 5608 5602 5598 5598 5595 5592 5586 5582 5578 5575 5573 5569 5570 5571 5572 5573 5575 5578 5581 5584 5587 5590 5593 5596 5599
5709 5704 5698 5692 5686 5680 5673 5666 5660 5652 5645 5637 5630 5622 5614 5606 5597 5589 5581 5574 5567 5565 5568 5567 5558 5551 5547 5546 5544 5540 5540 5542 5542 5545 5548 5552 5555 5559 5563 5566 5570 5574 5577
5695 5689 5683 5676 5669 5662 5654 5647 5640 5632 5623 5615 5606 5598 5589 5579 5570 5562 5553 5545 5537 5531 5532 5540 5531 5523 5516 5516 5515 5512 5511 5512 5514 5517 5521 5525 5529 5533 5538 5542 5546 5551 5555
5679 5672 5665 5658 5651 5643 5634 5626 5618 5609 5600 5591 5581 5571 5562 5551 5542 5534 5525 5518 5511 5503 5498 5508 5504 5496 5489 5488 5488 5486 5485 5485 5487 5490 5493 5498 5503 5508 5513 5518 5523 5528 5533
5662 5655 5647 5639 5631 5622 5613 5604 5595 5585 5575 5566 5555 5544 5535 5524 5516 5507 5499 5492 5486 5479 5473 5475 5479 5472 5466 5463 5462 5462 5462 5461 5463 5466 5468 5472 5478 5483 5489 5494 5499 5505 5510
5645 5637 5628 5620 5610 5601 5591 5581 5571 5561 5550 5540 5529 5518 5509 5499 5492 5484 5476 5470 5464 5458 5452 5450 5453 5451 5446 5443 5440 5441 5441 5441 5442 5444 5446 5450 5455 5460 5465 5471 5476 5482 5488
5626 5618 5609 5599 5589 5579 5568 5557 5546 5536 5525 5515 5504 5494 5486 5477 5470 5463 5456 5450 5444 5439 5434 5430 5430 5430 5427 5424 5421 5422 5421 5422 5423 5424 5427 5431 5435 5439 5444 5450 5456 5461 5466
5607 5598 5588 5578 5567 5556 5545 5533 5522 5512 5501 5492 5482 5473 5465 5458 5451 5444 5438 5433 5426 5421 5417 5413 5411 5410 5409 5406 5404 5403 5403 5404 5406 5407 5409 5413 5416 5420 5425 5430 5435 5441 5446
5588 5578 5568 5557 5546 5534 5522 5509 5497 5488 5479 5470 5463 5455 5447 5440 5434 5427 5421 5416 5410 5405 5401 5397 5395 5393 5392 5389 5388 5387 5387 5388 5390 5393 5392 5395 5398 5402 5407 5412 5417 5421 5426
5569 5559 5547 5536 5524 5512 5499 5487 5476 5466 5459 5452 5444 5437 5431 5424 5418 5412 5407 5402 5396 5391 5386 5382 5379 5378 5376 5375 5373 5372 5372 5372 5374 5375 5377 5380 5382 5386 5389 5393 5398 5402 5407
5549 5538 5527 5515 5503 5491 5478 5467 5457 5449 5442 5435 5427 5420 5415 5409 5403 5397 5393 5388 5384 5379 5373 5368 5365 5364 5362 5360 5359 5358 5357 5358 5360 5361 5362 5365 5367 5369 5372 5376 5380 5384 5388
5530 5518 5506 5494 5482 5471 5459 5449 5439 5432 5426 5419 5412 5406 5400 5394 5389 5383 5378 5374 5371 5366 5361 5356 5353 5351 5349 5347 5346 5345 5345 5345 5346 5348 5348 5350 5352 5354 5357 5360 5363 5367 5370
5509 5498 5487 5474 5463 5452 5442 5432 5423 5416 5411 5405 5399 5392 5386 5380 5375 5370 5365 5361 5357 5353 5349 5345 5342 5339 5336 5335 5333 5332 5332 5332 5333 5334 5335 5336 5338 5339 5342 5345 5348 5351 5354